Other Public Products
Issued by NWS Grand Forks, ND

Home | Current Version | Previous Version | Graphics & Text | Print | Product List | Glossary On
Versions: 1 2 3 4 5 6 7 8 9 10 11 12 13 14 15 16 17 18 19 20 21 22 23 24 25 26 27 28 29 30 31 32 33 34 35 36 37 38 39 40 41 42 43 44 45 46 47 48 49 50
000
FPUS83 KFGF 230110
OPUFGF
PRAIRIE TO PINES WEATHER ROUNDUP
NATIONAL WEATHER SERVICE EASTERN NORTH DAKOTA/GRAND FORKS ND
700 PM CST MON DEC 22 2014

 **SATELLITE DATA USED TO AUGMENT SKY COVER AT AUTOMATED STATIONS**
 *****  WEATHER ACROSS EASTERN NORTH DAKOTA  *****

CITY           SKY/WX    TMP DP  RH WIND       PRES   REMARKS
GRAND FORKS    LGT RAIN  36  35  96 NE8       29.66R
GRAND FORKS AF LGT RAIN  35  35  99 NE7       29.66R
GRAND CITY NWS NOT AVBL
BUXTON         NOT AVBL
DEVILS LAKE    CLOUDY    34  30  86 NE13      29.66R WCI  25
FARGO          LGT RAIN  37  34  89 E8        29.61R
WAHPETON ARPT  CLOUDY    34  32  93 E9        29.59R
$$

 *****  WEATHER ACROSS CENTRAL AND WESTERN NORTH DAKOTA  *****

CITY           SKY/WX    TMP DP  RH WIND       PRES   REMARKS
JAMESTOWN      CLOUDY    34  33  96 NE10      29.58R FOG
BISMARCK       CLOUDY    30  29  96 N17G23    29.66R WCI  18
MINOT          CLOUDY    29  27  92 NW15      29.73R WCI  18
MINOT AFB      CLOUDY    29  29 100 N13       29.73R WCI  18
GARRISON         N/A     28  26  92 N14       29.71R WCI  17
WILLISTON      CLOUDY    27  23  85 N16       29.81R WCI  15
DICKINSON      LGT SNOW  25  20  81 NW22      29.70R WCI  10
HETTINGER      LGT SNOW  24  20  84 NW17G31   29.69R FOG     WCI  11
$$

 *****  OTHER OBSERVATIONS NORTHEAST NORTH DAKOTA  *****

CITY           SKY/WX    TMP DP  RH WIND       PRES   REMARKS
WALHALLA         N/A     32  32 100 N9        29.72R FOG     WCI  24
LANGDON        FOG       32  32 100 NE15      29.68R VSB 1/2 WCI  22
CAVALIER       MIX PCPN  34  34 100 NE8       29.71R VSB 1
GRAFTON        NOT AVBL
CANDO          CLOUDY    32  32 100 N14       29.69R WCI  22
FORT TOTTEN    NOT AVBL
ROLLA          NOT AVBL
RUGBY          CLOUDY    32  32 100 NE15      29.70R WCI  22
 ***** THE ABOVE OBSERVATIONS ARE NON NWS ARE NOT QUALITY
        CONTROLLED AND MAY MIS-REPORT RAIN FOR SNOW...
$$

 *****  OTHER OBSERVATIONS SOUTHEAST NORTH DAKOTA *****

CITY           SKY/WX    TMP DP  RH WIND       PRES   REMARKS
COOPERSTOWN    NOT AVBL
VALLEY CITY    CLOUDY    36  36 100 E8        29.60R FOG
OAKES          LGT SNOW  32  32 100 NE14      29.55R WCI  22
GWINNER        CLOUDY    34  34 100 E13       29.57R WCI  25
BUFFALO        NOT AVBL
WYNDMERE         N/A     34  36 100 E10         N/A
 ***** THE ABOVE OBSERVATIONS ARE NON NWS ARE NOT QUALITY
       CONTROLLED AND MAY MIS-REPORT RAIN FOR SNOW...
$$

  *****  WEATHER ACROSS NORTHERN MINNESOTA  *****

CITY           SKY/WX    TMP DP  RH WIND       PRES   REMARKS
FLAG ISLAND    RAIN      34  32  93 E6        29.72R
WARROAD        LGT RAIN  34  30  86 NE8       29.71R
ROSEAU         DRIZZLE   36  30  80 NE7       29.70R
HALLOCK        LGT RAIN  36  34  93 NE7       29.70R
THF RVR FALLS  CLOUDY    36  34  93 E7        29.67R
HALSTAD          N/A     36  34  90 E6          N/A
FOSSTON        CLOUDY    34  34 100 E5        29.65R
BAUDETTE       CLOUDY    34  32  92 E6        29.70R
WASKISH        RAIN      36  34  93 CALM      29.69R
CROOKSTON      CLOUDY    36  36 100 E6        29.66R FOG
$$
  *****  WEATHER ACROSS CENTRAL AND WEST MINNESOTA  *****

CITY           SKY/WX    TMP DP  RH WIND       PRES   REMARKS
BEMIDJI        CLOUDY    33  32  97 E7        29.66R
PARK RAPIDS    LGT SNOW  34  32  92 E7        29.63R FOG
WADENA         LGT SNOW  34  32  93 E7        29.61R
DETROIT LAKES  LGT RAIN  34  34 100 E7        29.62R
MOORHEAD       DRIZZLE   37  37 100 E7        29.62R
FERGUS FALLS   DRIZZLE   36  34  93 E7        29.61R
ELBOW LAKE     FLURRIES  33  33  98 E13       29.57R WCI  24
MORRIS MN      MIX PCPN  36  34  93 E10       29.55R
STAPLES        LGT SNOW  32  32 100 E6        29.62R
WHEATON        LGT RAIN  32  32 100 E13       29.58R WCI  22
$$
  *****  WEATHER ELSEWHERE ACROSS MINNESOTA  *****

CITY           SKY/WX    TMP DP  RH WIND       PRES   REMARKS
DULUTH         CLOUDY    35  33  92 E12       29.71R FOG
INTRNTL FALLS  LGT SNOW  33  32  96 E6        29.72R FOG
ELY            CLOUDY    34  32  93 E3        29.73R FOG
CLOQUET        CLOUDY    34  34 100 E5        29.70R FOG
BRAINERD       LGT SNOW  33  32  96 VRB6      29.65R FOG
HIBBING        CLOUDY    35  32  88 SE10      29.70R FOG
ALEXANDRIA     LGT SNOW  34  32  92 E12       29.59R FOG
SAINT CLOUD    CLOUDY    36  33  89 E8        29.61R FOG
MINNEAPOLIS    LGT RAIN  37  34  89 E12       29.60S FOG
$$

  *****  WEATHER ACROSS SOUTH DAKOTA  *****

CITY           SKY/WX    TMP DP  RH WIND       PRES   REMARKS
SIOUX FALLS    DRIZZLE   36  35  96 NW3       29.45R
BROOKINGS      NOT AVBL
WATERTOWN      CLOUDY    36  35  96 E9        29.46R FOG
HURON          CLOUDY    33  32  96 CALM      29.48R
SISSETON       NOT AVBL
ABERDEEN       LGT RAIN  37  35  92 NE13      29.49R
MITCHELL       CLOUDY    34  33  96 NW9       29.48R FOG
PIERRE         LGT SNOW  30  28  92 MISG      29.54R FOG
MOBRIDGE       LGT SNOW  33  30  88 N21       29.54R FOG     WCI  21
RAPID CITY     LGT SNOW  31  26  82 NW44G53   29.61R WCI  14
$$

  *****  SOME WEATHER IN NEARBY STATES *****

CITY           SKY/WX    TMP DP  RH WIND       PRES   REMARKS
GLASGOW MT     CLOUDY    28  22  78 N17       29.90R WCI  16
GREAT FALLS MT CLOUDY    34  26  72 NW9       30.06R
CHEYENNE WY    CLOUDY    26  17  68 NW22G29   29.74R WCI  12
SCOTTSBLUFF NE PTCLDY    32  24  72 NW20      29.70R WCI  20
OMAHA NE       LGT RAIN  41  39  93 NW15      29.45R FOG
DES MOINES IA  LGT RAIN  40  37  89 E7        29.46S FOG
DAVENPORT IA   FOG       39  37  92 E10       29.56S VSB 1
CHICAGO IL     LGT RAIN  40  38  93 E14       29.66F FOG
EAU CLAIRE WI  CLOUDY    36  31  82 E10       29.65S
LA CROSSE WI   CLOUDY    36  33  89 E14       29.61F
$$

  *****  SOME NATIONAL WEATHER *****

CITY           SKY/WX    TMP DP  RH WIND       PRES   REMARKS
LA GUARDIA NY  CLOUDY    45  40  82 NE12      30.23R
RALEIGH NC     DRIZZLE   37  35  92 N6        30.09R FOG
ATLANTA GA     LGT RAIN  45  42  89 E13       29.92S
NEW ORLEANS LA CLOUDY    69  66  90 S12       29.72R FOG
OKLAHOMA CITY  MOCLDY    49  34  56 NW8       29.65R
ALBUQUERQUE NM PTCLDY    44  35  70 N9        29.75R
SALT LAKE CITY MOCLDY    41  28  60 NW22      30.04R
LOS ANGELES CA FOG       59  57  94 W6        29.95S VSB 1/2
BOISE ID       PTCLDY    41  30  65 NW12      30.26R
SEATTLE WA     MOCLDY    47  41  80 CALM      30.37F
$$

*** WEATHER ACROSS MANITOBA...SASKATCHEWAN AND ONTARIO ***
                ***ONTARIO***

CITY           SKY/WX    TMP DP  RH WIND       PRES   REMARKS
GERALDTON      LGT SNOW  32  32 100 SE5       29.88R
THUNDER BAY    CLOUDY    34  34 100 E7        29.84R FOG
SIOUX LOOKOUT  NOT AVBL
TORONTO        NOT AVBL
BIG TROUT LK   FLURRIES  30  30 100 N2        29.88R
PICKLE LAKE    LGT SNOW  32  30  93 E3        29.82R VSB 1
DRYDEN         SNOW      32  32 100 NE5       29.75R VSB 1/2
KENORA         SNOW      32  32 100 NE5       29.74R VSB 1/2
$$
                *** MANITOBA***

CITY           SKY/WX    TMP DP  RH WIND       PRES   REMARKS
BRANDON        CLOUDY    30  30 100 NE13      29.79R WCI  20
DAUPHIN        LGT SNOW  28  28 100 N10       29.86R WCI  19
ISLAND LAKE    LGT SNOW  28  28 100 N6        29.91R FOG     WCI  22
PILOT MOUND      N/A     30  30 100 N12         N/A  WCI  21
THE PAS        FLURRIES  23  21  93 NE3       29.95R
THOMPSON       FLURRIES  12  10  92 N7        30.00R WCI   2
WINNIPEG       DRZL/FOG  32  32 100 NE14      29.77R VSB 1/2 WCI  22
LYNN LAKE      FLURRIES   9   7  92 NW2       29.99S
CHURCHILL      FLURRIES  18  16  93 N13       30.07R WCI   4
$$
                ***SASKATCHEWAN***

CITY           SKY/WX    TMP DP  RH WIND       PRES   REMARKS
ESTEVAN        FLURRIES  25  25 100 N14       29.80R WCI  13
KINDERSLEY     CLOUDY    27  25  93 N3        29.96R
LLOYDMINSTER   CLOUDY    25  23  93 NW9       29.94S WCI  15
PRINCE ALBERT  FLURRIES  23  21  93 W7        29.95R WCI  15
REGINA         LGT SNOW  21  21 100 N12       29.90R FOG     WCI   9
YORKTON        CLOUDY    27  27 100 N12       29.87R WCI  16
N. BATTLEFORD  CLOUDY    23  23 100 W5        29.97R WCI  17


USA.gov is the U.S. government's official web portal to all federal, state and local government web resources and services.